Location: Lecco
(45.8566°N, 9.3977°E)
Time: 04:45:39
(UTC+02:00)

Transit 4A - Pass Details

Date: 17 August 2020
Orbit: 863 x 982 km, 66.8° (Epoch: 23 September)

Event Time Altitude Azimuth Distance (km) Brightness Sun altitude
Rises 15:43:38 0° 329° (NNW) 3,641 11.0 46.3°
Reaches altitude 10° 15:46:47 10° 344° (NNW) 2,710 10.3 45.9°
Maximum altitude 15:51:43 23° 35° (NE) 1,950 9.4 45.2°
Drops below altitude 10° 15:56:40 10° 86° (E) 2,734 10.1 44.5°
Sets 15:59:51 0° 100° (E) 3,682 10.7 44.0°
